Vorticity
7 6 4 5 6 1 9 7 5 9 5 6 19 3 9 6 18 13 7 6 8 10 12 13 13 11 9 10 10 11 11 11 10 10 9 9 7 6 6 6 5 4 3 3
4 2 5 5 8 8 3 8 3 12 13 10 4 0 7 12 11 15 3 3 9 7 9 10 12 12 9 7 6 7 9 10 10 9 8 7 7 7 7 7 6 5 4 3
8 -3 -3 -1 5 5 7 7 3 6 6 6 12 24 13 3 12 11 5 2 6 7 8 10 11 10 10 11 11 11 11 10 11 11 10 9 9 8 7 7 6 5 4 3
21 18 14 13 12 12 9 7 10 13 14 1 2 4 5 4 14 8 7 7 4 8 6 8 10 7 8 10 12 14 15 15 13 11 10 8 6 6 7 6 6 5 5 5
-5 -3 -1 3 5 8 -2 8 8 9 8 11 15 14 -2 9 15 8 10 5 8 7 6 8 8 7 6 6 9 11 12 13 13 12 10 9 8 6 7 7 6 6 6 5
3 2 6 8 9 11 4 9 9 10 14 21 15 -7 27 16 11 13 13 4 10 9 7 8 8 7 4 6 7 9 11 13 13 12 10 8 7 7 7 6 6 5 4 4
15 14 16 14 16 13 12 7 12 13 7 8 20 18 -18 -3 1 1 13 9 11 11 8 8 6 5 5 6 7 5 6 9 12 12 11 9 7 6 5 5 5 4 4 4
16 21 24 16 16 -10 20 10 -14 13 2 8 12 14 -10 12 20 14 9 12 12 10 8 7 7 6 5 7 7 5 5 8 10 7 10 9 8 6 6 5 5 5 6 7
8 17 17 13 11 10 24 12 8 2 14 10 10 24 20 13 7 10 13 14 13 9 7 6 9 9 7 7 8 6 5 7 6 6 8 8 8 7 7 8 8 8 8 6
9 15 23 17 14 8 -3 -0 9 12 9 7 9 4 -13 -10 9 12 13 16 14 10 7 6 8 10 10 10 9 6 5 3 4 6 6 7 7 6 6 5 4 2 4 13
6 18 1 7 14 11 16 11 3 2 1 3 14 13 3 12 14 27 18 18 16 13 9 8 8 8 11 13 11 5 5 5 5 5 6 5 5 7 3 1 9 16 14 10
-0 2 4 -5 4 6 9 4 10 -7 9 -1 8 9 25 34 19 33 23 20 16 14 13 7 9 14 9 17 16 4 -1 9 2 6 2 6 6 4 24 12 9 8 6 5
-7 5 12 18 19 22 30 28 29 24 13 17 -0 -14 1 -23 -35 -10 -26 -11 -7 -5 -4 11 10 10 3 -47 31 13 15 12 12 7 11 3 14 15 5 5 7 4 7 7
5 16 -7 -29 -31 -6 -9 -6 -1 11 11 2 -18 -10 -12 3 18 19 -4 -13 -1 -1 14 9 0 -17 25 -17 23 13 19 8 7 4 23 13 18 5 0 6 9 8 7 8
13 9 11 9 6 5 6 7 6 2 2 -5 -8 -10 -25 -5 21 34 31 30 25 24 45 6 12 4 14 35 31 10 17 14 23 24 10 15 -2 2 5 4 7 9 8 8
13 10 7 5 16 31 24 18 21 18 18 20 32 32 35 26 17 11 7 11 11 5 10 9 22 21 16 19 20 23 20 17 13 3 0 6 5 6 8 8 7 6 6 6
15 13 12 19 7 7 43 62 46 27 -1 2 10 13 13 2 3 8 13 13 19 16 8 21 27 23 21 21 17 9 4 4 5 6 8 8 8 7 8 7 7 7 10 14
13 13 17 3 35 19 19 10 -13 -19 3 19 -3 7 22 22 28 46 47 21 28 30 32 27 22 17 12 9 7 7 8 7 6 6 8 8 7 7 7 9 10 12 11 11
17 21 6 0 3 -18 34 37 28 14 -2 -7 9 12 12 -1 1 -0 10 11 11 22 15 6 7 7 6 5 8 7 7 9 9 7 7 7 7 8 10 11 11 11 12 14
10 14 -7 18 8 4 1 -9 -2 -1 30 25 12 2 -3 -7 -0 9 12 6 10 18 4 11 9 7 8 10 10 8 7 6 6 7 9 8 9 8 7 8 11 11 12 11
11 15 2 7 -2 12 7 15 17 26 2 -7 -11 -14 5 21 25 24 13 11 10 14 11 10 11 11 6 4 4 4 5 7 8 8 7 8 9 11 13 12 13 15 14 11
1 10 6 27 8 17 8 7 12 -3 -32 8 13 12 9 14 15 16 10 11 36 22 15 10 5 4 5 7 8 7 8 11 11 11 12 12 14 14 13 11 12 12 11 10
14 7 -13 -11 -30 -13 -2 -5 -7 15 3 11 17 22 23 13 16 13 14 15 4 5 2 4 6 6 10 15 15 15 15 14 14 14 12 11 11 10 11 13 13 12 13 14
3 10 -13 17 24 16 21 4 6 21 20 13 8 14 11 14 19 6 27 32 12 6 5 9 18 13 5 1 5 9 12 11 11 13 13 13 14 15 16 17 17 15 13 12
1 14 11 -2 15 12 12 20 -2 17 20 17 7 17 21 16 13 26 16 3 5 11 10 4 -2 3 1 5 8 12 16 16 15 16 17 17 16 14 13 12 11 12 13 13
2 16 12 -2 18 10 12 13 5 14 18 19 22 15 17 12 22 11 3 8 3 0 5 0 -1 4 4 3 10 19 12 13 12 9 9 11 12 13 13 12 11 11 10 11
Height
3118 3118 3117 3117 3117 3117 3116 3115 3113 3112 3111 3110 3107 3106 3105 3102 3100 3099 3099 3099 3098 3097 3097 3096 3097 3098 3099 3100 3101 3103 3104 3105 3107 3108 3110 3112 3113 3115 3116 3118 3120 3122 3123 3124
3116 3114 3114 3114 3113 3113 3113 3111 3110 3108 3107 3106 3104 3102 3100 3098 3096 3096 3095 3095 3095 3095 3094 3094 3094 3095 3096 3097 3098 3099 3100 3101 3102 3104 3105 3107 3109 3111 3113 3115 3117 3118 3119 3120
3111 3111 3110 3110 3109 3110 3109 3107 3106 3106 3103 3102 3100 3097 3095 3094 3093 3092 3092 3092 3092 3092 3092 3092 3092 3092 3093 3094 3094 3095 3095 3096 3098 3099 3101 3103 3105 3107 3109 3111 3113 3114 3115 3116
3107 3106 3106 3106 3105 3106 3104 3103 3102 3101 3101 3099 3097 3094 3090 3089 3088 3087 3087 3087 3088 3088 3088 3088 3088 3089 3090 3090 3090 3090 3091 3092 3093 3095 3097 3099 3100 3102 3104 3106 3108 3109 3111 3112
3104 3103 3103 3102 3102 3101 3100 3098 3097 3096 3096 3095 3091 3092 3084 3083 3082 3082 3082 3082 3083 3083 3083 3084 3084 3085 3085 3086 3086 3087 3087 3088 3089 3091 3092 3094 3096 3098 3099 3101 3103 3105 3106 3107
3099 3098 3098 3096 3096 3095 3095 3094 3093 3092 3091 3091 3084 3085 3079 3077 3078 3077 3077 3077 3077 3078 3079 3079 3080 3081 3082 3082 3082 3083 3084 3085 3085 3086 3088 3090 3092 3093 3095 3096 3098 3099 3100 3101
3094 3093 3092 3092 3091 3090 3090 3091 3091 3089 3088 3080 3078 3080 3073 3073 3073 3073 3072 3071 3072 3072 3073 3074 3075 3077 3078 3078 3078 3079 3080 3081 3082 3083 3084 3086 3087 3089 3090 3091 3093 3093 3094 3094
3090 3089 3087 3086 3086 3086 3085 3087 3086 3081 3076 3073 3076 3071 3066 3067 3067 3067 3066 3066 3067 3068 3069 3070 3071 3072 3073 3074 3074 3074 3075 3077 3078 3079 3080 3081 3082 3083 3085 3086 3087 3087 3088 3088
3087 3084 3083 3082 3082 3085 3082 3082 3083 3081 3078 3077 3068 3063 3062 3061 3061 3062 3061 3062 3062 3064 3065 3066 3067 3068 3068 3069 3069 3070 3070 3071 3073 3074 3075 3076 3077 3078 3078 3079 3080 3080 3080 3081
3083 3082 3080 3079 3080 3081 3080 3081 3080 3079 3075 3065 3059 3059 3058 3057 3057 3057 3058 3057 3058 3060 3061 3061 3062 3062 3063 3063 3064 3065 3065 3066 3067 3069 3069 3071 3071 3072 3072 3073 3073 3073 3073 3073
3081 3080 3078 3077 3076 3076 3076 3075 3076 3076 3072 3065 3056 3054 3055 3055 3054 3054 3054 3054 3055 3056 3056 3057 3057 3056 3056 3057 3058 3058 3060 3061 3062 3062 3062 3063 3064 3065 3065 3065 3066 3066 3066 3067
3078 3076 3074 3074 3072 3071 3070 3069 3070 3071 3066 3064 3062 3048 3053 3053 3053 3052 3053 3053 3052 3052 3053 3052 3052 3051 3051 3051 3053 3053 3053 3053 3054 3055 3055 3055 3055 3056 3057 3058 3058 3059 3059 3059
3073 3071 3071 3066 3069 3067 3064 3064 3065 3064 3062 3058 3060 3045 3050 3049 3048 3049 3049 3050 3049 3049 3047 3047 3045 3044 3043 3042 3042 3043 3044 3044 3046 3047 3046 3047 3049 3050 3050 3050 3051 3051 3051 3051
3069 3067 3067 3064 3064 3063 3062 3062 3061 3060 3057 3052 3041 3039 3045 3045 3043 3042 3041 3040 3040 3040 3039 3037 3036 3035 3034 3033 3032 3033 3035 3036 3037 3038 3040 3040 3042 3042 3043 3043 3043 3043 3043 3043
3065 3060 3060 3057 3056 3053 3051 3051 3052 3050 3047 3046 3033 3035 3037 3035 3032 3029 3028 3027 3028 3028 3027 3026 3025 3024 3025 3024 3023 3024 3026 3028 3030 3031 3033 3034 3034 3035 3035 3035 3035 3035 3034 3034
3057 3054 3050 3046 3047 3045 3040 3039 3038 3038 3036 3032 3031 3027 3027 3025 3023 3021 3020 3018 3018 3018 3017 3017 3017 3017 3017 3017 3017 3018 3020 3022 3024 3026 3026 3026 3027 3028 3028 3028 3028 3027 3026 3026
3052 3049 3048 3041 3040 3038 3032 3028 3027 3029 3029 3028 3025 3024 3021 3019 3015 3014 3012 3010 3008 3008 3008 3008 3008 3009 3010 3010 3013 3014 3016 3017 3017 3018 3019 3020 3021 3021 3021 3021 3020 3019 3019 3018
3044 3045 3045 3039 3037 3034 3025 3025 3025 3024 3024 3022 3020 3017 3014 3011 3008 3005 3004 3003 3001 3000 3001 3002 3003 3005 3006 3007 3009 3010 3010 3011 3012 3012 3014 3014 3014 3014 3013 3012 3012 3011 3010 3009
3041 3041 3041 3039 3034 3027 3023 3021 3021 3019 3018 3016 3014 3011 3008 3006 3004 3004 3003 3002 3000 2999 2999 3000 3001 3001 3002 3003 3004 3005 3005 3006 3007 3008 3008 3008 3007 3006 3005 3005 3003 3002 3001 3001
3037 3036 3038 3035 3033 3023 3017 3017 3015 3014 3010 3008 3008 3007 3005 3003 3000 2999 2999 2997 2996 2995 2995 2995 2996 2997 2997 2998 2999 3000 3001 3001 3001 3001 3000 2999 2999 2998 2996 2996 2995 2994 2994 2993
3032 3031 3030 3029 3027 3018 3014 3011 3011 3012 3011 3005 3003 3001 2999 2997 2995 2992 2991 2991 2991 2991 2990 2990 2991 2993 2993 2993 2993 2994 2995 2995 2995 2994 2993 2992 2991 2991 2989 2989 2988 2987 2986 2985
3026 3026 3023 3021 3021 3014 3009 3008 3009 3006 3001 2997 2994 2992 2989 2988 2986 2985 2984 2984 2984 2984 2983 2986 2987 2987 2988 2989 2989 2989 2989 2989 2987 2986 2985 2984 2983 2983 2982 2981 2980 2979 2977 2976
3019 3017 3016 3017 3010 3006 3004 3001 2999 2995 2991 2988 2985 2983 2980 2979 2979 2978 2978 2978 2977 2977 2979 2981 2983 2983 2984 2984 2983 2982 2980 2979 2979 2977 2976 2976 2976 2975 2974 2973 2971 2970 2968 2967
3009 3008 3006 3004 3000 2997 2995 2993 2989 2986 2982 2980 2978 2974 2972 2972 2971 2971 2971 2972 2973 2974 2975 2976 2977 2977 2978 2978 2977 2976 2975 2973 2971 2970 2969 2968 2967 2966 2965 2964 2963 2962 2960 2959
3004 3000 2997 2992 2990 2987 2985 2983 2980 2977 2974 2971 2969 2966 2965 2963 2963 2964 2965 2967 2968 2969 2970 2971 2971 2972 2972 2971 2970 2970 2967 2965 2964 2963 2962 2961 2960 2959 2958 2957 2956 2954 2952 2951
2997 2993 2990 2984 2982 2978 2977 2975 2972 2967 2965 2962 2960 2959 2958 2958 2957 2958 2960 2961 2962 2963 2964 2965 2965 2965 2965 2964 2963 2963 2961 2959 2957 2957 2956 2955 2954 2953 2952 2951 2949 2948 2946 2944